QPF
0.02 0.00 0.00 0.00 0.00 0.00 0.00 0.00 0.00 0.00 0.00 0.00 0.00 0.00 0.00 0.00 0.00 0.00 0.00 0.00 0.00 0.00 0.00 0.00 0.00 0.00 0.00 0.00 0.00 0.00 0.00 0.00 0.00 0.00 0.00 0.00 0.00 0.00 0.00 0.00 0.00 0.00 0.00
0.02 0.03 0.01 0.00 0.00 0.00 0.00 0.00 0.00 0.00 0.00 0.00 0.00 0.00 0.00 0.00 0.00 0.00 0.00 0.00 0.00 0.00 0.00 0.00 0.00 0.00 0.00 0.00 0.00 0.00 0.00 0.00 0.00 0.00 0.00 0.00 0.00 0.00 0.00 0.00 0.00 0.00 0.00
0.01 0.03 0.04 0.03 0.00 0.00 0.00 0.00 0.00 0.00 0.00 0.00 0.00 0.00 0.00 0.00 0.00 0.00 0.00 0.00 0.00 0.00 0.00 0.00 0.00 0.00 0.00 0.00 0.00 0.00 0.00 0.00 0.00 0.00 0.00 0.00 0.00 0.00 0.00 0.00 0.00 0.00 0.00
0.00 0.00 0.03 0.05 0.02 0.01 0.00 0.00 0.00 0.00 0.00 0.00 0.00 0.00 0.00 0.00 0.00 0.00 0.00 0.00 0.00 0.00 0.00 0.00 0.00 0.00 0.00 0.00 0.00 0.00 0.00 0.00 0.00 0.00 0.00 0.00 0.00 0.00 0.00 0.00 0.00 0.00 0.00
0.00 0.00 0.00 0.03 0.06 0.03 0.01 0.00 0.00 0.00 0.00 0.00 0.00 0.00 0.00 0.00 0.00 0.00 0.00 0.00 0.00 0.00 0.00 0.00 0.00 0.00 0.00 0.00 0.00 0.00 0.00 0.00 0.00 0.00 0.00 0.00 0.00 0.00 0.00 0.00 0.00 0.00 0.00
0.00 0.00 0.00 0.00 0.03 0.02 0.01 0.01 0.00 0.00 0.00 0.00 0.00 0.00 0.00 0.00 0.00 0.00 0.00 0.00 0.00 0.00 0.00 0.00 0.00 0.00 0.00 0.00 0.00 0.00 0.00 0.00 0.00 0.00 0.00 0.00 0.00 0.00 0.00 0.00 0.00 0.00 0.00
0.00 0.00 0.00 0.00 0.01 0.02 0.01 0.01 0.00 0.00 0.00 0.00 0.00 0.00 0.00 0.00 0.00 0.00 0.00 0.00 0.00 0.00 0.00 0.00 0.00 0.00 0.00 0.00 0.00 0.00 0.00 0.00 0.00 0.00 0.00 0.00 0.00 0.00 0.00 0.00 0.00 0.00 0.00
0.00 0.00 0.00 0.00 0.00 0.00 0.00 0.00 0.00 0.01 0.00 0.00 0.00 0.00 0.00 0.00 0.00 0.00 0.00 0.00 0.00 0.00 0.00 0.00 0.00 0.00 0.00 0.00 0.00 0.00 0.00 0.00 0.00 0.00 0.00 0.00 0.00 0.00 0.00 0.00 0.00 0.00 0.00
0.00 0.00 0.00 0.00 0.00 0.00 0.00 0.00 0.00 0.01 0.02 0.00 0.00 0.00 0.00 0.00 0.00 0.00 0.00 0.00 0.00 0.00 0.00 0.00 0.00 0.00 0.00 0.00 0.00 0.00 0.00 0.00 0.00 0.00 0.00 0.00 0.00 0.00 0.00 0.00 0.00 0.00 0.00
0.00 0.00 0.00 0.00 0.00 0.00 0.00 0.00 0.00 0.00 0.01 0.01 0.00 0.00 0.00 0.00 0.00 0.00 0.00 0.00 0.00 0.00 0.00 0.00 0.00 0.00 0.00 0.00 0.00 0.00 0.00 0.00 0.00 0.00 0.00 0.00 0.00 0.00 0.00 0.00 0.00 0.00 0.00
0.00 0.00 0.00 0.00 0.00 0.00 0.00 0.00 0.00 0.00 0.01 0.00 0.00 0.00 0.00 0.00 0.00 0.00 0.00 0.00 0.00 0.00 0.00 0.00 0.00 0.00 0.00 0.00 0.00 0.00 0.00 0.00 0.00 0.00 0.00 0.00 0.00 0.00 0.00 0.00 0.00 0.00 0.00
0.00 0.00 0.00 0.00 0.00 0.00 0.00 0.00 0.00 0.00 0.01 0.02 0.02 0.01 0.01 0.01 0.00 0.00 0.00 0.00 0.00 0.00 0.00 0.00 0.00 0.00 0.00 0.00 0.00 0.00 0.00 0.00 0.00 0.00 0.00 0.00 0.00 0.00 0.00 0.00 0.00 0.00 0.00
0.00 0.00 0.00 0.00 0.00 0.00 0.00 0.00 0.00 0.00 0.00 0.01 0.03 0.02 0.01 0.01 0.00 0.00 0.00 0.00 0.00 0.00 0.00 0.00 0.00 0.00 0.00 0.00 0.00 0.00 0.00 0.00 0.00 0.00 0.00 0.00 0.00 0.00 0.00 0.00 0.00 0.00 0.00
0.00 0.00 0.00 0.00 0.00 0.00 0.00 0.00 0.00 0.00 0.00 0.00 0.03 0.03 0.02 0.01 0.00 0.00 0.00 0.00 0.00 0.00 0.00 0.00 0.00 0.00 0.00 0.00 0.00 0.00 0.00 0.00 0.00 0.00 0.00 0.00 0.00 0.00 0.00 0.00 0.00 0.00 0.00
0.00 0.00 0.00 0.00 0.00 0.00 0.00 0.00 0.00 0.00 0.00 0.00 0.01 0.02 0.02 0.01 0.00 0.00 0.00 0.00 0.00 0.00 0.00 0.00 0.00 0.00 0.00 0.00 0.00 0.00 0.00 0.00 0.00 0.00 0.00 0.00 0.00 0.00 0.00 0.00 0.00 0.00 0.00
0.00 0.00 0.00 0.00 0.00 0.00 0.00 0.00 0.00 0.00 0.00 0.00 0.00 0.00 0.00 0.00 0.00 0.00 0.00 0.00 0.00 0.00 0.00 0.00 0.00 0.00 0.00 0.00 0.00 0.00 0.00 0.00 0.00 0.00 0.00 0.00 0.00 0.00 0.00 0.00 0.00 0.00 0.00
0.00 0.00 0.00 0.00 0.00 0.00 0.00 0.00 0.00 0.00 0.00 0.00 0.00 0.00 0.00 0.00 0.00 0.00 0.00 0.00 0.00 0.00 0.00 0.00 0.00 0.00 0.00 0.00 0.00 0.00 0.00 0.00 0.00 0.00 0.00 0.00 0.00 0.00 0.00 0.00 0.00 0.00 0.00
0.00 0.00 0.00 0.00 0.00 0.00 0.00 0.00 0.00 0.00 0.00 0.00 0.00 0.00 0.00 0.00 0.00 0.00 0.00 0.00 0.00 0.00 0.00 0.00 0.00 0.00 0.00 0.00 0.00 0.00 0.00 0.00 0.00 0.00 0.00 0.00 0.00 0.00 0.00 0.00 0.00 0.00 0.00
0.00 0.00 0.00 0.00 0.00 0.00 0.00 0.00 0.00 0.00 0.00 0.00 0.00 0.00 0.00 0.00 0.00 0.00 0.00 0.00 0.00 0.00 0.00 0.00 0.00 0.00 0.00 0.00 0.00 0.00 0.00 0.00 0.00 0.00 0.00 0.00 0.00 0.00 0.00 0.00 0.00 0.00 0.00
0.00 0.00 0.00 0.00 0.00 0.00 0.00 0.00 0.00 0.00 0.00 0.00 0.00 0.00 0.00 0.00 0.00 0.00 0.00 0.00 0.00 0.00 0.00 0.00 0.00 0.00 0.00 0.00 0.00 0.00 0.00 0.00 0.00 0.00 0.00 0.00 0.00 0.00 0.00 0.00 0.00 0.00 0.00
0.00 0.00 0.00 0.00 0.00 0.00 0.00 0.00 0.00 0.00 0.00 0.00 0.00 0.00 0.00 0.00 0.00 0.00 0.00 0.00 0.00 0.00 0.00 0.00 0.00 0.00 0.00 0.00 0.00 0.00 0.00 0.00 0.00 0.00 0.00 0.00 0.00 0.00 0.00 0.00 0.01 0.02 0.01
0.00 0.00 0.00 0.00 0.00 0.00 0.00 0.00 0.00 0.00 0.00 0.00 0.00 0.00 0.00 0.00 0.00 0.00 0.00 0.00 0.00 0.00 0.00 0.00 0.00 0.00 0.00 0.00 0.00 0.00 0.00 0.00 0.00 0.00 0.00 0.00 0.00 0.00 0.00 0.01 0.01 0.01 0.00
0.00 0.00 0.00 0.00 0.00 0.00 0.00 0.00 0.00 0.00 0.00 0.00 0.00 0.00 0.00 0.00 0.00 0.00 0.00 0.00 0.00 0.00 0.00 0.00 0.00 0.00 0.00 0.00 0.00 0.00 0.00 0.00 0.00 0.00 0.00 0.00 0.00 0.00 0.00 0.00 0.00 0.00 0.00
0.00 0.00 0.00 0.00 0.00 0.00 0.00 0.00 0.00 0.00 0.00 0.00 0.00 0.00 0.00 0.00 0.00 0.00 0.00 0.00 0.00 0.00 0.00 0.00 0.00 0.00 0.00 0.00 0.00 0.00 0.00 0.00 0.00 0.00 0.00 0.00 0.00 0.00 0.00 0.00 0.00 0.00 0.00
0.00 0.00 0.00 0.00 0.00 0.00 0.00 0.00 0.00 0.00 0.00 0.00 0.00 0.00 0.00 0.00 0.00 0.00 0.00 0.00 0.00 0.00 0.00 0.00 0.00 0.00 0.00 0.00 0.00 0.00 0.00 0.00 0.00 0.00 0.00 0.00 0.00 0.00 0.00 0.00 0.00 0.00 0.00
0.00 0.00 0.00 0.00 0.00 0.00 0.00 0.00 0.00 0.00 0.00 0.00 0.00 0.00 0.00 0.00 0.00 0.00 0.00 0.00 0.00 0.00 0.00 0.00 0.00 0.00 0.00 0.00 0.00 0.00 0.00 0.00 0.00 0.00 0.00 0.00 0.00 0.00 0.00 0.00 0.00 0.00 0.00
MSLP
1011.92 1012.64 1013.19 1013.31 1013.61 1013.93 1014.53 1015.22 1015.80 1016.39 1016.93 1017.50 1017.79 1018.18 1018.43 1018.82 1019.07 1019.20 1019.63 1019.92 1020.18 1020.47 1020.72 1020.92 1021.13 1021.19 1021.28 1021.41 1021.60 1021.80 1022.11 1022.32 1022.26 1022.38 1022.67 1022.86 1023.01 1023.23 1023.43 1023.55 1023.92 1024.32 1024.47
1011.88 1012.67 1013.17 1013.25 1013.57 1013.83 1014.19 1014.80 1015.61 1016.08 1016.61 1017.07 1017.59 1017.95 1018.43 1018.92 1019.15 1019.61 1019.82 1020.12 1020.42 1020.67 1020.82 1021.07 1021.17 1021.14 1021.42 1021.67 1021.92 1021.93 1022.12 1022.57 1022.70 1022.34 1022.21 1022.61 1023.03 1023.12 1023.47 1023.63 1023.93 1024.29 1024.45
1011.34 1012.16 1013.34 1013.18 1013.35 1013.70 1014.02 1014.46 1015.17 1015.78 1016.18 1016.80 1017.38 1017.97 1018.59 1019.26 1019.64 1019.96 1020.05 1020.30 1020.64 1021.00 1020.99 1021.07 1021.50 1021.62 1021.25 1021.74 1022.08 1022.21 1022.23 1022.39 1022.98 1022.87 1022.77 1022.46 1022.37 1022.80 1023.37 1023.74 1024.06 1024.21 1024.23
1010.82 1011.96 1012.46 1012.72 1012.94 1013.17 1013.80 1014.19 1014.69 1015.34 1015.89 1016.37 1016.84 1017.59 1018.04 1018.74 1019.19 1019.74 1020.07 1020.48 1020.84 1021.09 1021.32 1021.42 1021.77 1021.89 1021.78 1022.02 1022.42 1022.31 1022.55 1022.42 1022.85 1023.26 1023.20 1023.15 1023.19 1022.96 1023.11 1023.47 1023.85 1024.14 1024.19
1010.61 1011.39 1011.92 1012.58 1012.79 1012.94 1013.46 1014.15 1014.50 1014.92 1015.49 1015.92 1016.47 1017.00 1017.40 1017.90 1018.60 1019.63 1020.19 1020.55 1020.86 1021.29 1021.48 1021.81 1022.04 1022.02 1022.11 1022.49 1022.71 1022.77 1022.92 1022.87 1022.92 1023.28 1023.60 1023.55 1023.57 1023.69 1023.55 1023.41 1023.52 1023.87 1023.79
1010.26 1010.84 1011.09 1012.12 1012.48 1012.47 1012.83 1013.45 1014.11 1014.50 1014.99 1015.34 1016.10 1016.38 1016.76 1017.38 1018.27 1019.00 1019.76 1020.33 1020.76 1021.46 1021.69 1022.10 1022.43 1022.07 1022.53 1022.96 1023.02 1023.03 1023.32 1023.46 1023.52 1023.71 1023.89 1023.87 1023.87 1023.93 1024.15 1024.11 1024.01 1023.99 1024.09
1009.49 1010.36 1010.98 1011.41 1011.78 1012.03 1012.43 1012.78 1013.53 1013.75 1014.33 1014.97 1015.36 1015.68 1016.08 1016.66 1017.47 1018.32 1019.16 1019.97 1020.62 1021.18 1021.67 1022.07 1022.45 1022.49 1022.96 1023.32 1023.24 1023.40 1023.79 1023.85 1024.05 1024.15 1024.37 1024.50 1024.69 1024.81 1025.00 1025.15 1025.07 1024.78 1024.55
1008.98 1009.60 1010.51 1010.83 1011.10 1011.50 1011.63 1012.34 1012.50 1013.04 1013.70 1014.40 1014.80 1015.51 1016.12 1016.63 1017.38 1017.82 1018.37 1019.43 1020.28 1020.86 1021.37 1021.77 1022.09 1022.54 1023.29 1023.65 1023.65 1023.84 1024.08 1024.43 1024.56 1024.75 1025.00 1025.07 1025.17 1025.35 1025.57 1025.75 1025.83 1025.53 1025.06
1009.03 1009.31 1009.39 1009.47 1009.85 1010.65 1010.71 1011.28 1012.09 1012.97 1013.35 1013.95 1014.60 1014.94 1015.59 1016.53 1017.11 1017.63 1018.24 1019.14 1019.21 1020.58 1021.06 1021.60 1022.15 1022.45 1023.12 1023.76 1023.76 1023.91 1024.41 1024.62 1024.87 1025.26 1025.50 1025.57 1025.62 1025.78 1026.00 1026.17 1026.13 1026.21 1025.69
1009.32 1009.53 1009.59 1009.64 1009.33 1009.23 1009.79 1010.73 1011.30 1012.03 1012.79 1013.77 1014.10 1013.93 1013.87 1015.65 1016.93 1017.63 1017.99 1018.87 1019.26 1020.19 1021.12 1021.48 1021.90 1022.44 1022.91 1023.75 1023.88 1024.29 1024.63 1024.74 1025.19 1025.45 1025.59 1025.84 1025.97 1026.05 1026.22 1026.45 1026.45 1026.30 1026.20
1008.74 1009.18 1009.34 1009.57 1009.51 1009.39 1009.43 1010.26 1010.75 1011.11 1011.95 1012.85 1013.95 1014.74 1014.77 1014.64 1016.65 1017.51 1018.34 1018.38 1019.14 1020.21 1021.07 1021.56 1021.78 1022.52 1023.00 1023.72 1024.03 1024.47 1024.79 1024.92 1025.27 1025.49 1025.73 1025.99 1026.17 1026.36 1026.43 1026.38 1026.40 1026.24 1026.10
1008.49 1009.03 1009.23 1009.27 1009.44 1009.11 1009.33 1009.70 1010.33 1010.39 1011.75 1012.07 1013.14 1014.37 1015.20 1015.40 1016.57 1017.54 1017.93 1018.40 1018.97 1020.02 1020.92 1021.23 1021.89 1022.62 1023.22 1023.64 1024.21 1024.56 1024.94 1025.07 1025.34 1025.58 1025.91 1026.12 1026.22 1026.47 1026.50 1026.44 1026.28 1026.10 1025.96
1007.81 1008.49 1009.02 1009.26 1009.33 1009.21 1009.40 1009.57 1010.06 1010.50 1011.70 1012.42 1013.25 1014.56 1015.43 1015.56 1017.38 1017.21 1017.78 1018.56 1019.23 1020.08 1020.97 1021.29 1022.07 1022.85 1023.57 1023.78 1024.47 1024.71 1025.04 1025.28 1025.59 1025.85 1026.14 1026.29 1026.37 1026.45 1026.51 1026.42 1026.17 1025.97 1025.74
1006.73 1007.76 1008.19 1008.80 1009.32 1009.59 1009.64 1009.85 1009.95 1010.93 1012.01 1012.54 1013.66 1014.73 1015.71 1015.95 1017.14 1017.59 1018.17 1018.95 1019.11 1019.94 1020.87 1021.72 1022.54 1023.18 1023.65 1024.14 1024.64 1024.95 1025.15 1025.48 1025.78 1026.06 1026.28 1026.36 1026.42 1026.51 1026.46 1026.31 1026.13 1025.78 1025.49
1006.93 1007.36 1008.12 1008.49 1008.98 1009.39 1010.12 1010.46 1010.98 1012.10 1012.80 1012.87 1013.41 1014.24 1015.45 1016.28 1017.71 1018.22 1018.03 1019.33 1019.20 1020.34 1021.33 1022.17 1022.88 1023.40 1023.92 1024.44 1024.88 1025.08 1025.39 1025.57 1025.80 1025.95 1026.16 1026.21 1026.24 1026.52 1026.58 1026.39 1026.03 1025.79 1025.55
1006.97 1007.17 1007.60 1008.33 1009.16 1009.62 1009.98 1010.80 1011.72 1012.35 1012.79 1013.46 1013.77 1014.42 1015.79 1016.48 1017.33 1018.00 1018.70 1019.35 1019.67 1021.17 1021.68 1022.32 1023.09 1023.83 1024.33 1025.05 1025.21 1025.33 1025.38 1025.53 1025.76 1025.90 1025.88 1025.82 1025.85 1025.86 1025.86 1025.83 1025.79 1025.79 1025.56
1006.99 1007.22 1007.60 1007.99 1008.46 1009.53 1010.80 1011.35 1011.94 1012.63 1013.19 1013.75 1014.40 1015.21 1015.97 1016.60 1017.32 1018.36 1018.89 1019.58 1020.53 1021.16 1021.96 1022.76 1023.44 1024.02 1024.68 1025.14 1025.25 1025.42 1025.45 1025.52 1025.64 1025.68 1025.68 1025.66 1025.51 1025.51 1025.50 1025.33 1025.17 1025.03 1024.74
1007.03 1007.33 1007.53 1007.90 1008.55 1009.10 1009.89 1011.13 1012.01 1012.45 1013.20 1014.08 1014.85 1015.38 1016.01 1016.78 1017.65 1018.24 1019.14 1019.99 1020.69 1021.46 1022.34 1023.11 1023.67 1024.28 1024.76 1025.13 1025.34 1025.47 1025.48 1025.49 1025.50 1025.50 1025.44 1025.39 1025.33 1025.22 1025.11 1024.95 1024.71 1024.45 1024.12
1007.26 1007.41 1007.44 1007.84 1008.52 1009.30 1010.17 1010.73 1011.60 1012.44 1013.27 1014.07 1014.80 1015.40 1016.20 1016.94 1017.68 1018.48 1019.30 1020.12 1020.98 1021.98 1022.72 1023.33 1023.88 1024.21 1024.57 1025.10 1025.33 1025.47 1025.33 1025.21 1025.09 1025.06 1025.06 1025.02 1024.95 1024.96 1024.81 1024.65 1024.32 1023.88 1023.44
1007.48 1007.66 1007.73 1007.98 1008.73 1009.55 1010.14 1011.06 1011.80 1012.60 1013.30 1014.03 1014.83 1015.61 1016.24 1016.78 1017.71 1018.59 1019.66 1020.59 1021.46 1022.27 1022.92 1023.43 1023.87 1024.20 1024.51 1024.95 1025.23 1025.27 1025.19 1025.06 1024.82 1024.69 1024.51 1024.39 1024.36 1024.35 1024.38 1024.25 1023.97 1023.45 1023.07
1007.78 1007.83 1007.89 1008.32 1008.83 1009.53 1010.28 1010.80 1011.43 1012.38 1013.31 1014.16 1014.98 1015.86 1016.59 1017.20 1017.91 1019.16 1020.21 1020.92 1021.67 1022.42 1023.02 1023.41 1023.82 1024.19 1024.47 1024.62 1024.94 1025.14 1025.13 1024.94 1024.74 1024.62 1024.37 1024.11 1023.96 1024.02 1023.97 1023.77 1023.51 1022.99 1022.47
1007.78 1007.96 1008.33 1008.47 1008.93 1009.40 1009.95 1010.62 1011.57 1012.53 1013.47 1014.37 1015.32 1016.21 1016.94 1017.74 1018.69 1019.49 1020.49 1021.09 1021.83 1022.57 1023.04 1023.43 1023.79 1024.04 1024.25 1024.54 1024.75 1024.89 1024.96 1024.90 1024.77 1024.53 1024.29 1024.12 1023.99 1023.82 1023.47 1023.12 1022.81 1022.39 1022.14
1007.61 1007.96 1008.22 1008.73 1009.08 1009.68 1010.04 1010.69 1011.65 1012.70 1013.73 1014.73 1015.59 1016.47 1017.40 1018.24 1019.07 1019.79 1020.76 1021.46 1022.01 1022.48 1022.85 1023.24 1023.51 1023.69 1023.91 1024.14 1024.30 1024.60 1024.57 1024.63 1024.48 1024.29 1024.13 1023.85 1023.53 1023.25 1023.01 1022.83 1022.46 1022.20 1022.01
1007.11 1007.81 1008.18 1008.67 1009.30 1009.77 1010.17 1010.69 1011.72 1012.73 1013.77 1014.79 1015.83 1016.78 1017.68 1018.66 1019.49 1019.91 1020.87 1021.41 1021.91 1022.31 1022.66 1023.01 1023.28 1023.47 1023.71 1023.82 1023.95 1024.08 1024.12 1024.04 1023.99 1023.89 1023.81 1023.57 1023.12 1022.95 1022.88 1022.54 1022.25 1022.03 1021.90
1006.82 1007.23 1007.50 1008.20 1009.08 1009.92 1010.39 1011.04 1011.61 1012.53 1013.76 1014.90 1015.98 1017.05 1017.93 1018.71 1019.39 1020.18 1021.00 1021.40 1021.77 1022.15 1022.44 1022.80 1023.11 1023.39 1023.46 1023.50 1023.73 1023.86 1023.76 1023.69 1023.64 1023.56 1023.60 1023.23 1022.87 1022.82 1022.62 1022.35 1022.17 1022.06 1021.96
1006.45 1006.95 1007.29 1007.60 1008.24 1009.03 1010.08 1011.14 1011.84 1012.51 1013.33 1014.82 1016.18 1017.15 1017.96 1018.71 1019.52 1020.54 1021.34 1021.74 1022.06 1022.47 1022.78 1022.99 1023.26 1023.32 1023.32 1023.44 1023.49 1023.49 1023.43 1023.37 1023.39 1023.31 1023.32 1023.03 1022.86 1022.75 1022.61 1022.45 1022.36 1022.32 1022.09
Thickness
5641 5642 5643 5648 5650 5653 5654 5654 5653 5654 5654 5652 5652 5651 5651 5651 5651 5652 5649 5648 5646 5643 5641 5639 5637 5635 5633 5631 5629 5626 5622 5619 5619 5615 5611 5608 5604 5599 5594 5591 5586 5580 5576
5634 5635 5636 5643 5644 5647 5650 5650 5648 5649 5649 5649 5647 5646 5646 5645 5645 5643 5642 5639 5637 5635 5634 5631 5629 5628 5625 5622 5619 5618 5615 5610 5607 5608 5607 5600 5596 5593 5587 5582 5577 5571 5567
5635 5633 5626 5634 5637 5640 5643 5645 5644 5644 5644 5642 5641 5640 5637 5634 5633 5632 5633 5632 5629 5626 5625 5624 5620 5618 5619 5613 5609 5607 5606 5602 5596 5595 5594 5593 5591 5587 5579 5572 5566 5562 5558
5633 5627 5622 5620 5629 5634 5634 5636 5639 5639 5637 5637 5637 5634 5632 5629 5630 5627 5626 5623 5620 5618 5615 5613 5609 5607 5605 5602 5598 5597 5594 5594 5588 5583 5581 5578 5575 5575 5571 5566 5558 5551 5547
5624 5623 5627 5620 5621 5623 5628 5627 5628 5631 5632 5632 5631 5629 5630 5629 5627 5619 5615 5614 5611 5607 5604 5601 5598 5597 5594 5589 5587 5586 5582 5581 5579 5574 5568 5565 5562 5558 5556 5553 5550 5543 5538
5620 5617 5621 5619 5621 5624 5625 5627 5625 5625 5626 5628 5626 5628 5627 5624 5618 5613 5609 5606 5603 5597 5594 5589 5585 5586 5582 5577 5575 5573 5569 5566 5564 5560 5555 5553 5550 5546 5540 5537 5534 5529 5523
5621 5617 5616 5610 5619 5617 5619 5621 5621 5624 5624 5622 5623 5624 5622 5620 5615 5611 5606 5600 5595 5589 5584 5579 5575 5573 5567 5564 5563 5560 5556 5553 5550 5546 5541 5537 5531 5526 5520 5514 5511 5509 5506
5619 5617 5611 5611 5614 5616 5616 5616 5621 5620 5620 5618 5617 5613 5613 5611 5606 5604 5602 5593 5586 5581 5575 5571 5568 5563 5555 5551 5550 5547 5542 5536 5533 5528 5523 5520 5515 5509 5502 5496 5490 5488 5489
5608 5609 5614 5617 5619 5616 5621 5618 5612 5609 5611 5608 5606 5609 5608 5602 5599 5595 5593 5583 5584 5571 5565 5560 5556 5553 5546 5539 5537 5534 5528 5523 5518 5512 5506 5502 5498 5492 5485 5479 5474 5467 5466
5596 5599 5604 5608 5613 5620 5619 5614 5614 5610 5608 5602 5604 5609 5614 5601 5590 5585 5582 5575 5571 5562 5553 5551 5548 5541 5537 5528 5525 5519 5514 5510 5503 5498 5493 5486 5481 5476 5470 5462 5456 5451 5446
5592 5593 5598 5598 5603 5610 5615 5608 5609 5609 5603 5599 5594 5592 5596 5596 5581 5572 5565 5565 5560 5550 5543 5539 5537 5529 5524 5515 5511 5505 5500 5497 5490 5485 5479 5472 5466 5459 5453 5448 5441 5436 5430
5585 5584 5588 5592 5593 5600 5601 5604 5602 5605 5596 5597 5592 5586 5580 5580 5571 5563 5559 5556 5550 5541 5533 5531 5524 5516 5510 5503 5497 5492 5486 5482 5476 5470 5463 5456 5451 5443 5436 5430 5425 5421 5415
5584 5581 5579 5581 5584 5590 5591 5592 5593 5593 5585 5584 5581 5572 5568 5569 5554 5555 5549 5545 5537 5531 5521 5518 5510 5502 5494 5491 5482 5477 5471 5466 5460 5453 5446 5439 5433 5426 5420 5414 5410 5405 5400
5585 5576 5577 5576 5574 5576 5579 5581 5582 5577 5570 5569 5562 5557 5554 5554 5545 5539 5535 5529 5526 5519 5511 5502 5493 5486 5481 5474 5467 5462 5457 5451 5444 5436 5429 5422 5416 5410 5404 5399 5393 5389 5384
5571 5571 5565 5568 5568 5568 5565 5564 5561 5554 5551 5554 5553 5549 5542 5537 5525 5522 5526 5513 5514 5503 5494 5486 5479 5472 5465 5458 5452 5448 5441 5435 5428 5421 5414 5408 5402 5394 5388 5382 5377 5370 5364
5562 5564 5564 5558 5553 5553 5554 5550 5545 5543 5541 5538 5538 5536 5526 5522 5516 5512 5506 5500 5497 5484 5479 5473 5464 5456 5450 5442 5437 5432 5427 5421 5413 5407 5401 5396 5390 5383 5376 5368 5361 5352 5345
5556 5555 5554 5554 5554 5544 5533 5530 5529 5527 5526 5524 5520 5515 5511 5508 5503 5496 5491 5485 5477 5471 5464 5456 5449 5442 5434 5427 5423 5416 5411 5406 5399 5393 5388 5382 5376 5369 5362 5356 5349 5341 5333
5552 5548 5547 5545 5542 5542 5536 5526 5519 5518 5515 5509 5506 5504 5502 5496 5489 5483 5475 5469 5463 5457 5448 5440 5433 5426 5419 5413 5407 5401 5396 5391 5386 5380 5374 5368 5361 5354 5349 5343 5336 5329 5320
5543 5541 5541 5538 5533 5528 5523 5520 5515 5510 5505 5500 5497 5493 5487 5481 5475 5469 5463 5457 5449 5439 5431 5424 5417 5412 5407 5399 5393 5387 5384 5380 5375 5368 5361 5356 5349 5340 5334 5328 5321 5316 5307
5531 5530 5531 5529 5522 5516 5512 5505 5502 5497 5492 5488 5482 5477 5473 5470 5463 5456 5448 5439 5430 5423 5415 5409 5403 5398 5393 5385 5380 5375 5371 5367 5363 5358 5352 5345 5339 5330 5320 5311 5303 5295 5285
5519 5518 5519 5516 5512 5507 5500 5498 5495 5488 5481 5474 5468 5462 5456 5453 5448 5439 5429 5423 5416 5408 5401 5395 5390 5384 5379 5374 5368 5362 5356 5353 5349 5343 5338 5333 5324 5315 5305 5293 5282 5272 5264
5505 5504 5503 5502 5500 5496 5492 5488 5480 5472 5465 5458 5451 5446 5441 5435 5428 5423 5414 5406 5399 5393 5387 5382 5377 5372 5367 5360 5355 5349 5344 5339 5334 5330 5324 5316 5307 5297 5288 5278 5266 5256 5245
5495 5492 5491 5487 5483 5479 5478 5473 5466 5457 5449 5442 5436 5430 5424 5418 5412 5406 5396 5390 5385 5381 5376 5371 5367 5362 5356 5350 5344 5337 5333 5327 5322 5315 5307 5300 5293 5283 5273 5260 5250 5238 5229
5487 5481 5478 5476 5468 5465 5464 5461 5451 5444 5436 5429 5421 5415 5408 5401 5396 5392 5382 5378 5373 5370 5365 5359 5354 5350 5344 5339 5333 5328 5322 5316 5309 5302 5294 5286 5279 5269 5257 5245 5234 5226 5219
5475 5472 5471 5466 5458 5451 5449 5444 5440 5434 5425 5416 5408 5401 5395 5389 5384 5376 5370 5366 5362 5358 5354 5348 5342 5337 5332 5328 5321 5315 5310 5304 5297 5291 5281 5274 5265 5253 5241 5231 5224 5217 5211
5460 5459 5459 5457 5452 5446 5439 5430 5426 5422 5416 5404 5395 5388 5382 5376 5369 5361 5354 5350 5347 5341 5337 5333 5328 5325 5320 5315 5310 5304 5298 5293 5284 5278 5268 5260 5249 5237 5227 5221 5215 5207 5203